Precipitable_Water
1.54 1.59 1.51 1.43 1.37 1.40 1.39 1.38 1.35 1.35 1.35 1.34 1.30 1.27 1.27 1.25 1.22 1.21 1.19 1.24 1.23 1.23 1.22 1.24 1.26 1.28 1.30 1.29 1.30 1.29 1.32 1.31 1.34 1.36 1.37 1.39 1.39 1.39 1.42 1.50 1.62 1.73 1.69
1.56 1.58 1.51 1.49 1.54 1.51 1.44 1.37 1.36 1.36 1.37 1.37 1.33 1.29 1.27 1.29 1.27 1.24 1.24 1.25 1.24 1.22 1.28 1.25 1.24 1.22 1.25 1.24 1.22 1.24 1.28 1.28 1.32 1.35 1.34 1.35 1.35 1.38 1.43 1.52 1.61 1.64 1.64
1.51 1.51 1.50 1.56 1.54 1.51 1.48 1.40 1.37 1.37 1.36 1.39 1.38 1.35 1.30 1.26 1.27 1.27 1.28 1.28 1.25 1.22 1.26 1.26 1.25 1.26 1.22 1.19 1.20 1.23 1.27 1.26 1.29 1.31 1.33 1.43 1.38 1.42 1.41 1.49 1.62 1.64 1.59
1.53 1.52 1.50 1.49 1.48 1.46 1.44 1.43 1.41 1.40 1.39 1.40 1.43 1.43 1.40 1.34 1.30 1.29 1.29 1.29 1.28 1.25 1.25 1.23 1.23 1.24 1.22 1.18 1.19 1.23 1.27 1.26 1.27 1.27 1.35 1.44 1.56 1.46 1.41 1.43 1.60 1.59 1.60
1.37 1.42 1.42 1.44 1.44 1.43 1.42 1.38 1.35 1.32 1.31 1.33 1.37 1.47 1.48 1.46 1.42 1.43 1.44 1.37 1.32 1.31 1.29 1.28 1.26 1.23 1.21 1.17 1.15 1.19 1.22 1.24 1.24 1.25 1.29 1.46 1.76 1.49 1.41 1.40 1.53 1.56 1.55
1.19 1.33 1.36 1.36 1.33 1.31 1.30 1.27 1.23 1.24 1.29 1.31 1.33 1.37 1.44 1.47 1.45 1.42 1.43 1.42 1.39 1.33 1.32 1.32 1.27 1.24 1.19 1.17 1.15 1.16 1.18 1.20 1.22 1.21 1.28 1.62 1.70 1.32 1.36 1.45 1.48 1.53 1.54
1.21 1.22 1.20 1.13 1.13 1.14 1.16 1.17 1.14 1.17 1.23 1.26 1.29 1.31 1.38 1.45 1.46 1.43 1.40 1.38 1.38 1.37 1.35 1.29 1.25 1.23 1.21 1.19 1.17 1.19 1.20 1.19 1.17 1.16 1.25 1.79 1.53 1.32 1.32 1.44 1.50 1.54 1.52
1.08 1.05 1.00 0.97 0.94 0.97 0.95 0.96 1.00 1.08 1.13 1.16 1.23 1.27 1.30 1.41 1.47 1.50 1.49 1.45 1.42 1.37 1.36 1.34 1.27 1.25 1.23 1.21 1.17 1.19 1.21 1.20 1.19 1.13 1.27 1.35 1.52 1.34 1.30 1.37 1.45 1.54 1.52
0.94 0.89 0.85 0.81 0.79 0.79 0.75 0.68 0.73 0.78 0.85 0.93 1.00 1.09 1.19 1.31 1.43 1.49 1.55 1.57 1.54 1.49 1.46 1.43 1.41 1.36 1.30 1.25 1.19 1.16 1.18 1.21 1.20 1.15 1.19 1.42 1.30 1.28 1.32 1.27 1.34 1.48 1.46
0.70 0.67 0.66 0.66 0.64 0.61 0.58 0.56 0.56 0.53 0.53 0.54 0.62 0.73 0.85 1.17 1.30 1.47 1.60 1.59 1.60 1.59 1.56 1.51 1.49 1.49 1.45 1.37 1.25 1.17 1.15 1.17 1.17 1.15 1.16 1.23 1.41 1.37 1.35 1.27 1.27 1.39 1.42
0.64 0.62 0.63 0.62 0.59 0.58 0.57 0.56 0.55 0.52 0.55 0.55 0.56 0.55 0.54 0.57 0.62 0.81 1.15 1.41 1.57 1.69 1.69 1.64 1.58 1.53 1.52 1.50 1.42 1.30 1.19 1.13 1.12 1.13 1.10 1.24 1.39 1.45 1.30 1.24 1.24 1.32 1.39
0.58 0.59 0.58 0.57 0.57 0.56 0.54 0.52 0.52 0.50 0.51 0.50 0.54 0.51 0.53 0.53 0.53 0.55 0.56 0.62 0.95 1.34 1.51 1.58 1.60 1.58 1.56 1.53 1.50 1.46 1.35 1.17 1.11 1.09 1.13 1.24 1.29 1.36 1.35 1.32 1.24 1.28 1.34
0.58 0.56 0.54 0.54 0.53 0.49 0.47 0.47 0.46 0.45 0.44 0.46 0.46 0.47 0.47 0.49 0.51 0.49 0.49 0.50 0.55 0.69 0.93 1.25 1.49 1.61 1.62 1.56 1.49 1.43 1.43 1.41 1.28 1.14 1.10 1.24 1.31 1.42 1.30 1.29 1.25 1.25 1.28
0.52 0.52 0.53 0.48 0.48 0.47 0.47 0.46 0.45 0.44 0.44 0.45 0.45 0.47 0.47 0.45 0.46 0.48 0.49 0.50 0.52 0.55 0.54 0.75 1.03 1.26 1.48 1.66 1.68 1.52 1.46 1.53 1.50 1.33 1.12 1.22 1.28 1.29 1.28 1.26 1.22 1.26 1.27
0.45 0.46 0.46 0.46 0.46 0.47 0.45 0.46 0.46 0.45 0.45 0.45 0.46 0.48 0.49 0.47 0.47 0.49 0.49 0.51 0.52 0.54 0.54 0.53 0.69 0.85 1.10 1.34 1.52 1.68 1.55 1.45 1.56 1.70 1.37 1.31 1.30 1.29 1.27 1.25 1.20 1.25 1.27
0.42 0.42 0.45 0.44 0.47 0.47 0.45 0.45 0.46 0.47 0.47 0.48 0.47 0.48 0.49 0.49 0.49 0.49 0.50 0.50 0.52 0.54 0.56 0.57 0.57 0.58 0.71 0.99 1.23 1.45 1.55 1.58 1.47 1.47 1.46 1.46 1.45 1.37 1.29 1.25 1.21 1.24 1.27
0.40 0.42 0.43 0.44 0.47 0.47 0.46 0.47 0.48 0.47 0.47 0.46 0.48 0.49 0.49 0.51 0.52 0.51 0.49 0.48 0.51 0.55 0.54 0.53 0.55 0.59 0.62 0.66 0.82 1.15 1.37 1.50 1.61 1.57 1.43 1.37 1.41 1.46 1.33 1.24 1.22 1.22 1.26
0.41 0.42 0.44 0.46 0.46 0.47 0.47 0.47 0.47 0.48 0.47 0.47 0.48 0.49 0.52 0.52 0.51 0.50 0.48 0.47 0.49 0.50 0.50 0.50 0.53 0.54 0.56 0.62 0.66 0.77 1.07 1.31 1.48 1.56 1.59 1.45 1.44 1.43 1.47 1.27 1.24 1.21 1.25
0.42 0.43 0.44 0.46 0.46 0.45 0.46 0.46 0.47 0.48 0.47 0.48 0.48 0.49 0.50 0.50 0.51 0.49 0.48 0.48 0.49 0.49 0.49 0.50 0.50 0.55 0.55 0.54 0.62 0.70 0.78 1.03 1.28 1.46 1.54 1.57 1.46 1.44 1.46 1.34 1.28 1.24 1.19
0.45 0.45 0.45 0.46 0.46 0.47 0.47 0.47 0.47 0.47 0.48 0.49 0.49 0.49 0.49 0.49 0.49 0.47 0.46 0.47 0.51 0.50 0.50 0.51 0.50 0.54 0.56 0.58 0.59 0.58 0.66 0.77 0.99 1.29 1.43 1.54 1.58 1.53 1.48 1.40 1.37 1.31 1.21
0.50 0.49 0.49 0.48 0.50 0.49 0.48 0.46 0.46 0.45 0.47 0.48 0.49 0.48 0.48 0.47 0.48 0.47 0.46 0.48 0.49 0.49 0.50 0.52 0.53 0.50 0.50 0.61 0.59 0.57 0.55 0.59 0.66 0.87 1.26 1.42 1.52 1.56 1.49 1.42 1.31 1.47 1.29
0.51 0.52 0.53 0.53 0.54 0.55 0.54 0.53 0.52 0.51 0.51 0.50 0.49 0.48 0.48 0.48 0.49 0.48 0.48 0.47 0.49 0.49 0.51 0.52 0.53 0.51 0.53 0.55 0.54 0.56 0.46 0.55 0.60 0.63 0.77 1.24 1.41 1.62 1.51 1.50 1.42 1.41 1.39
0.53 0.54 0.55 0.54 0.54 0.54 0.54 0.54 0.53 0.52 0.51 0.48 0.47 0.47 0.48 0.48 0.48 0.49 0.49 0.49 0.50 0.51 0.50 0.52 0.53 0.52 0.48 0.55 0.59 0.55 0.49 0.45 0.56 0.72 0.64 0.68 1.02 1.21 1.50 1.78 1.42 1.43 1.42
0.54 0.57 0.55 0.54 0.52 0.52 0.52 0.51 0.49 0.47 0.45 0.47 0.47 0.47 0.47 0.49 0.49 0.49 0.50 0.50 0.51 0.52 0.52 0.54 0.57 0.56 0.56 0.49 0.57 0.61 0.65 0.65 0.55 0.54 0.74 0.73 0.92 0.98 1.32 1.42 1.76 1.53 1.54
0.53 0.54 0.54 0.53 0.50 0.48 0.48 0.48 0.45 0.43 0.44 0.47 0.48 0.48 0.48 0.49 0.49 0.50 0.50 0.50 0.50 0.53 0.53 0.54 0.55 0.57 0.59 0.57 0.56 0.56 0.57 0.62 0.67 0.60 0.53 0.73 0.93 1.02 1.15 1.26 1.14 1.44 1.55
0.55 0.55 0.52 0.49 0.45 0.44 0.44 0.41 0.39 0.36 0.38 0.40 0.43 0.45 0.47 0.48 0.48 0.48 0.48 0.50 0.52 0.52 0.53 0.55 0.57 0.58 0.59 0.61 0.63 0.63 0.56 0.53 0.54 0.63 0.62 0.63 0.68 0.82 1.02 1.15 1.10 1.10 1.40
Wind_Speed
8 7 6 7 7 7 8 9 9 10 10 10 10 10 9 9 9 8 8 7 7 6 6 6 6 7 8 9 9 9 9 8 8 7 6 5 5 4 4 3 3 3 1
8 7 7 7 7 8 9 10 11 11 12 12 12 11 11 11 10 10 10 9 9 9 8 8 8 9 9 9 9 9 9 9 8 8 7 6 6 5 5 4 5 4 3
8 8 8 8 8 10 11 12 12 13 14 14 14 14 14 13 13 12 11 11 10 10 10 10 10 10 10 10 10 10 10 10 9 9 8 7 6 6 6 6 6 5 5
9 9 9 9 10 11 12 13 14 15 15 15 14 15 15 15 14 13 13 12 12 12 11 11 11 11 10 10 10 10 10 10 10 10 9 9 8 7 6 6 6 6 6
10 10 10 10 11 12 13 15 16 16 15 16 16 16 15 15 15 15 14 14 14 14 13 13 12 12 11 11 11 11 11 11 11 11 11 11 9 9 8 8 7 7 6
9 9 10 11 12 13 14 15 16 16 16 17 17 17 17 17 16 16 16 16 16 15 15 14 14 13 13 12 12 12 11 12 12 12 12 11 11 10 10 9 9 8 7
10 10 11 11 12 14 15 16 17 17 18 18 19 18 18 18 18 18 18 17 17 17 17 16 16 16 15 15 14 14 13 13 13 13 14 14 13 12 11 11 10 10 9
10 11 12 13 14 16 16 17 18 19 19 20 20 19 19 19 20 20 19 19 19 19 19 18 18 18 18 17 17 16 16 15 15 14 13 14 14 13 12 13 13 11 11
11 12 13 14 16 17 18 19 20 20 21 21 21 20 19 19 20 20 21 21 21 21 21 21 21 20 20 20 19 19 18 18 17 16 16 15 15 15 14 14 14 14 13
13 14 15 16 17 18 20 21 21 22 22 21 20 20 19 19 19 20 21 22 24 24 24 24 24 23 22 22 22 21 21 20 20 19 18 17 17 16 15 15 15 16 15
14 15 16 17 18 19 20 21 21 21 21 21 20 20 20 20 20 20 22 23 23 24 25 26 27 26 26 25 24 24 24 23 22 21 20 19 18 18 17 16 17 17 16
15 16 16 16 17 18 19 20 20 20 20 20 19 20 20 20 20 21 22 23 24 25 27 28 29 29 29 28 27 27 26 26 25 24 23 21 20 19 19 18 18 18 18
16 16 17 18 18 19 20 20 20 20 20 20 20 20 20 21 20 21 22 22 23 25 26 27 27 29 31 31 31 30 29 28 26 27 25 23 22 22 20 20 20 19 19
17 18 19 19 19 19 20 19 20 20 20 21 22 22 22 22 23 23 23 24 25 25 26 27 28 29 30 30 31 32 31 29 28 26 26 25 24 23 23 22 21 21 20
19 20 20 20 20 20 20 21 21 22 23 24 24 25 25 25 26 27 27 28 29 29 30 30 30 31 32 32 32 32 32 32 30 29 27 27 26 26 24 23 24 23 22
21 21 21 22 22 22 23 24 25 25 26 27 27 28 28 29 29 30 31 31 32 32 33 33 34 34 35 36 35 35 34 33 33 33 31 29 29 28 27 26 26 25 24
22 23 23 24 24 25 26 27 28 29 29 30 30 31 31 32 32 34 34 34 35 35 36 37 36 36 37 37 39 39 38 37 37 35 34 33 33 31 30 29 28 27 26
24 24 25 25 26 27 29 30 31 31 32 32 32 33 34 34 36 36 36 36 37 38 38 37 38 38 39 38 39 41 41 42 40 40 38 36 35 34 32 31 30 30 29
24 25 26 27 29 30 31 32 33 33 33 34 35 35 36 37 38 38 39 40 41 40 40 40 40 40 41 41 40 41 43 43 44 43 42 40 38 36 35 34 33 32 32
26 27 28 29 31 32 33 33 34 34 35 35 36 37 38 39 40 41 41 41 41 41 41 41 42 43 43 43 43 44 43 46 46 44 44 43 42 39 37 36 36 35 34
27 28 29 31 32 32 33 34 34 35 36 36 37 38 39 40 41 41 42 42 42 42 43 43 43 44 44 44 44 43 46 47 48 49 46 45 45 43 42 40 38 38 36
28 29 30 30 31 32 32 33 34 35 35 35 37 38 39 40 40 41 41 42 42 43 43 43 43 43 43 43 43 43 40 42 44 48 49 46 47 44 46 45 43 40 39
28 28 28 29 29 30 31 31 32 32 33 34 35 36 38 38 39 40 40 41 42 42 42 42 41 42 42 41 43 41 37 37 37 41 46 49 50 50 49 47 49 43 41
27 27 27 28 28 28 28 28 29 30 31 32 33 34 35 36 37 38 39 40 40 40 39 39 39 39 40 40 39 42 44 42 36 34 38 44 46 50 53 52 40 42 39
24 24 24 24 24 25 26 26 27 27 28 29 30 32 33 34 34 35 36 36 35 35 36 36 37 37 38 38 38 39 41 42 41 41 39 36 39 46 48 48 53 39 35
22 22 22 23 23 24 24 25 25 25 26 27 28 29 30 30 30 31 32 32 32 32 32 33 33 34 35 36 36 37 39 39 40 39 40 41 43 39 41 44 48 50 48
Wind_Direction
291 282 279 282 289 296 305 311 313 313 311 309 309 308 304 300 298 296 298 298 296 292 292 289 288 287 289 292 288 286 288 291 293 294 294 288 285 281 286 285 292 272 250
276 277 274 284 289 297 302 304 306 306 305 303 301 299 296 293 291 287 288 288 288 287 287 286 287 290 290 290 287 285 282 283 285 285 284 280 278 274 274 274 290 261 252
270 272 275 281 289 297 300 304 305 304 303 300 295 292 290 287 285 283 283 283 284 284 285 285 286 288 289 288 286 285 282 279 278 278 276 272 268 272 270 272 283 255 254
265 268 274 281 289 297 302 305 306 305 304 303 299 293 288 284 283 279 280 279 280 280 281 283 285 284 286 288 287 284 282 278 276 273 268 272 258 269 270 268 266 262 255
264 267 273 282 290 297 301 304 305 305 305 303 299 295 290 284 279 277 276 276 277 277 278 280 281 280 281 284 286 284 282 279 276 272 267 268 264 267 271 263 264 260 254
263 268 277 283 291 297 301 305 306 306 304 304 301 296 289 284 280 276 275 275 275 276 276 278 278 277 278 280 282 282 282 279 276 272 268 262 261 266 268 263 260 255 253
262 270 278 286 292 299 303 304 305 305 305 304 301 297 291 283 279 277 275 274 273 274 275 276 276 275 275 276 277 277 278 278 276 273 270 271 256 265 264 260 255 252 251
264 272 279 285 290 296 301 304 305 305 305 304 301 298 292 286 280 277 275 273 273 273 274 274 274 274 274 274 274 275 274 275 274 272 272 270 259 260 261 258 253 250 251
269 275 281 286 291 294 297 301 301 303 304 303 301 298 294 289 283 277 275 274 273 272 273 273 273 273 273 273 272 272 272 272 272 270 269 272 259 258 259 258 250 249 251
271 277 281 286 292 295 297 299 300 301 302 302 301 298 296 291 288 283 279 277 274 272 272 271 272 272 272 271 270 270 269 270 269 269 268 270 256 256 257 257 252 249 250
272 277 282 287 292 296 298 298 299 301 302 303 301 299 297 291 289 287 284 282 280 277 273 272 271 271 270 270 269 268 267 267 266 266 266 263 257 255 256 256 251 248 248
272 277 282 286 292 297 300 302 300 301 302 302 302 301 299 296 291 290 287 285 282 280 276 274 272 270 268 268 267 266 265 264 263 264 262 259 257 252 255 256 251 249 247
269 275 279 285 290 295 298 299 299 300 301 301 301 301 299 297 295 294 291 289 286 283 280 277 275 272 268 266 265 264 263 262 261 261 260 255 253 253 254 254 251 249 246
270 275 279 283 287 292 296 298 300 299 299 298 299 298 298 296 295 294 292 291 288 287 284 280 277 275 273 269 265 262 260 259 260 259 256 251 251 251 254 254 249 247 244
273 275 279 281 284 289 292 295 296 296 297 297 296 295 295 293 292 292 291 290 288 287 285 282 279 275 273 270 267 265 260 257 257 255 257 251 251 252 252 252 247 246 245
273 276 279 281 283 287 289 292 293 294 295 295 294 293 293 292 290 290 289 289 288 286 284 282 279 277 273 270 268 265 263 260 255 254 255 253 251 251 251 250 247 245 244
275 277 279 280 283 286 288 291 292 293 294 292 292 293 292 291 291 290 289 288 287 287 285 282 280 277 274 271 267 264 262 259 257 255 253 253 252 251 250 250 246 244 242
276 278 280 281 284 287 288 290 291 292 293 292 292 292 292 292 291 290 289 288 287 286 285 282 280 278 275 273 269 264 262 258 256 255 253 252 251 250 248 248 246 243 241
277 279 281 282 285 288 289 290 291 292 292 292 292 291 292 292 291 291 289 288 287 286 284 282 280 278 276 272 271 267 261 259 256 254 253 251 251 249 248 247 246 243 240
278 280 282 284 287 289 289 291 292 292 292 292 292 292 292 292 291 291 289 288 287 285 284 282 280 277 276 274 271 267 264 258 255 253 252 251 250 249 247 247 245 242 239
279 281 283 285 288 289 290 292 293 294 293 293 293 294 293 293 292 291 289 288 287 285 284 282 280 278 275 272 273 268 263 259 254 251 251 251 249 248 247 246 243 240 239
279 282 284 286 288 291 292 292 294 294 294 294 295 294 294 294 293 291 290 289 288 286 285 283 280 278 274 270 268 269 264 260 256 250 248 249 248 247 248 244 240 238 238
280 282 284 286 289 292 294 295 296 296 296 297 298 297 296 295 294 292 291 290 289 287 284 282 280 276 273 271 264 262 262 258 259 251 247 248 248 247 249 238 238 235 234
280 282 285 287 290 293 297 299 301 301 301 302 302 301 300 299 297 295 293 292 289 287 285 282 280 276 273 269 266 260 256 257 256 256 249 248 247 248 246 250 245 228 233
283 283 286 288 291 294 298 302 303 305 306 306 307 307 306 304 301 299 297 295 291 289 286 283 280 277 273 270 264 261 259 255 254 252 252 251 250 249 249 249 246 245 242
283 285 286 288 292 296 299 303 306 309 311 312 314 314 314 312 309 306 303 299 296 291 289 287 283 279 274 270 266 262 257 254 251 251 251 250 250 251 250 248 244 246 247